User: anonymous   Login
Location: Cincinnati Observatory Center
(39.1389°N, 84.4225°W)
Time: 13:42:09
(UTC-04:00)
Language:

JAS-1B - Orbit

View from above orbital plane
View from above orbital plane
View from above satellite
View from above satellite

Ground track
Ground track

The orbit data is extracted from the following two-line orbital elements,

1 20480U 90013C   17144.23798084 -.00000043 +00000-0 -32162-4 0  9992
2 20480 099.0512 281.8966 0541006 085.2569 281.0071 12.83415965278654
Epoch (UTC): 24 May 2017 05:42:41
Eccentricity: 0.0541006
inclination: 99.0512°
perigee height: 911 km
apogee height: 1744 km
right ascension of ascending node: 281.8966°
argument of perigee: 85.2569°
revolutions per day: 12.83415965
mean anomaly at epoch: 281.0071°
orbit number at epoch: 27865

The dashed part of the orbit path shows where the satellite is in the earth's shadow,  

DLR